Change the Weather History Date:

Thursday, October 14, 2010

  Actual Average Record
Temperature  
Mean Temperature - -  
Max Temperature - 64 °F 85 °F (1989)
Min Temperature - 44 °F 28 °F (2002)
Moisture  
Dew Point -    
Average Humidity    
Maximum Humidity    
Minimum Humidity    
Precipitation  
Precipitation 0.00 in - - ()
Wind  
Wind Speed - (North)    
Max Wind Speed -    
Max Gust Speed -    
Averages and records for this station are not official NWS values.
T = Trace of Precipitation, MM = Missing Value Source: NWS Daily Summary

Daily Weather History Graph

Daily Weather History Graph

Search for Another Location

Airport or City:

Trip Planner

Search our weather history database for the weather conditions in past years. The results will help you decide how hot, cold, wet, or windy it might be!

Date:

Astronomy

Oct. 14, 2010 Rise Set
Actual Time 7:45 AM EDT 6:55 PM EDT
Civil Twilight 7:17 AM EDT 7:23 PM EDT
Nautical Twilight 6:45 AM EDT 7:55 PM EDT
Astronomical Twilight 6:13 AM EDT 8:26 PM EDT
Moon 2:45 PM EDT (10/14) No Moon Set
Length of Visible Light 12h 05m
Length of Day
11h 10m
Waxing Crescent, 48% of the Moon is Illuminated
Oct 14
Waxing Crescent
Oct 14
First Quarter
Oct 22
Full
Oct 30
Last Quarter
Nov 6
New

Hourly Weather History & Observations

Time (EDT) Temp. Windchill Dew Point Humidity Pressure Visibility Wind Dir Wind Speed Gust Speed Precip Events Conditions
12:01 AM 53.6 °F - 51.8 °F 94% 29.99 in 2.5 mi NW 4.6 mph - 0.02 in Rain Heavy Rain
12:09 AM 53.6 °F - 51.8 °F 94% 29.99 in 3.0 mi NW 4.6 mph - 0.03 in Rain Rain
12:24 AM 53.6 °F - 51.8 °F 94% 29.99 in 3.0 mi WNW 5.8 mph - 0.05 in Rain Rain
12:31 AM 53.6 °F - 51.8 °F 94% 29.98 in 2.0 mi West 5.8 mph - 0.07 in Rain Heavy Rain
12:45 AM 53.6 °F - 51.8 °F 94% 29.98 in 5.0 mi NNW 12.7 mph - 0.08 in Rain Light Rain
12:51 AM 53.6 °F - 50.0 °F 88% 29.98 in 6.0 mi North 13.8 mph - 0.08 in Rain Light Rain
12:53 AM 53.1 °F - 50.0 °F 89% 29.97 in 6.0 mi North 12.7 mph - 0.08 in Rain Light Rain
12:58 AM 53.6 °F - 50.0 °F 88% 29.98 in 7.0 mi North 11.5 mph - 0.00 in Rain Light Rain
1:53 AM 53.1 °F - 51.1 °F 93% 29.96 in 8.0 mi NNW 10.4 mph - 0.01 in Rain Light Rain
2:33 AM 53.6 °F - 50.0 °F 88% 29.98 in 10.0 mi NNW 8.1 mph - 0.00 in Rain Light Rain
2:50 AM 53.6 °F - 50.0 °F 88% 29.98 in 10.0 mi NNW 8.1 mph - 0.00 in   Overcast
2:53 AM 53.1 °F - 50.0 °F 89% 29.96 in 10.0 mi NNW 8.1 mph - 0.00 in   Overcast
3:22 AM 53.6 °F - 50.0 °F 88% 29.97 in 10.0 mi NNW 5.8 mph - N/A   Overcast
3:53 AM 53.1 °F - 51.1 °F 93% 29.95 in 8.0 mi NW 9.2 mph - N/A   Overcast
3:55 AM 53.6 °F - 51.8 °F 94% 29.96 in 8.0 mi NW 10.4 mph - N/A   Overcast
4:12 AM 53.6 °F - 50.0 °F 88% 29.97 in 9.0 mi NW 11.5 mph - N/A   Overcast
4:53 AM 50.0 °F - 46.9 °F 89% 29.97 in 10.0 mi NNW 8.1 mph - N/A   Mostly Cloudy
5:35 AM 50.0 °F - 46.4 °F 87% 30.00 in 10.0 mi NW 8.1 mph - N/A   Mostly Cloudy
5:53 AM 48.9 °F - 46.0 °F 90% 29.99 in 10.0 mi NW 8.1 mph - N/A   Mostly Cloudy
7:53 AM 46.0 °F 41.9 °F 43.0 °F 89% 30.01 in 10.0 mi NW 8.1 mph - N/A   Clear
8:53 AM 46.9 °F - 43.0 °F 86% 30.03 in 10.0 mi WNW 8.1 mph - N/A   Clear
9:53 AM 51.1 °F - 44.1 °F 77% 30.04 in 10.0 mi NW 9.2 mph - N/A   Clear
10:53 AM 54.0 °F - 41.0 °F 62% 30.02 in 10.0 mi NW 13.8 mph - N/A   Clear
11:53 AM 57.0 °F - 39.0 °F 51% 30.02 in 10.0 mi NW 12.7 mph 18.4 mph N/A   Clear
12:53 PM 59.0 °F - 35.1 °F 41% 30.01 in 10.0 mi NNW 15.0 mph 21.9 mph N/A   Clear
1:53 PM 62.1 °F - 37.0 °F 39% 29.98 in 10.0 mi WNW 11.5 mph 17.3 mph N/A   Clear
2:53 PM 63.0 °F - 37.0 °F 38% 29.95 in 10.0 mi NW 11.5 mph - N/A   Clear
3:53 PM 64.0 °F - 35.1 °F 34% 29.92 in 10.0 mi West 15.0 mph 21.9 mph N/A   Scattered Clouds
4:53 PM 63.0 °F - 34.0 °F 34% 29.90 in 10.0 mi West 15.0 mph 24.2 mph N/A   Scattered Clouds
5:53 PM 60.1 °F - 33.1 °F 36% 29.90 in 10.0 mi West 10.4 mph - N/A   Clear
6:53 PM 57.0 °F - 36.0 °F 45% 29.90 in 10.0 mi WSW 5.8 mph - N/A   Scattered Clouds
7:53 PM 57.9 °F - 33.1 °F 39% 29.90 in 10.0 mi WNW 11.5 mph 20.7 mph 0.00 in   Overcast
8:53 PM 54.0 °F - 37.9 °F 55% 29.88 in 10.0 mi WSW 5.8 mph - N/A   Partly Cloudy
9:53 PM 52.0 °F - 39.0 °F 61% 29.86 in 10.0 mi SW 4.6 mph - N/A   Mostly Cloudy
10:53 PM 51.1 °F - 39.0 °F 63% 29.84 in 10.0 mi Calm Calm - N/A   Mostly Cloudy
11:53 PM 50.0 °F - 39.0 °F 66% 29.82 in 10.0 mi SSW 3.5 mph - N/A   Mostly Cloudy